Location: Wayah Bald
(35.1806°N, 83.5603°W)
Time: 07:35:28
(UTC-05:00)

Daily predictions for brighter satellites

Satellite Brightness Start Highest point End
(mag) Time Altitude Azimuth Time Altitude Azimuth Time Altitude Azimuth
CENTAUR R/B 3.9 18:40:42 10° NW 18:48:34 59° WSW 18:56:45 10° SSE
Cosmos 1300 Rocket 4.4 18:45:18 10° SSE 18:49:07 29° E 18:52:57 10° NNE
OAO 3 Copernicus 4.4 18:46:03 10° W 18:51:09 84° S 18:56:13 10° E
Cosmos 2292 Rocket 4.3 18:47:13 10° S 18:51:59 58° E 18:58:26 10° NNE
Abrixas rocket 3.6 18:51:09 10° S 18:53:55 24° SE 18:56:42 10° E
Cosmos 1833 4.3 18:48:21 10° S 18:53:58 62° ESE 18:59:34 10° NNE
ALOS 3.3 18:52:33 10° SE 18:56:19 25° ENE 19:00:06 10° NNE
COSMO-SKYMED 1 3.3 18:53:06 10° N 18:57:22 58° WNW 19:01:37 10° SSW
Cosmos 2181 Rocket 4.4 18:54:03 10° N 18:59:55 41° E 19:05:50 10° SSE
FREGAT/IRIS 3.2 19:01:04 10° SE 19:03:55 35° ENE 19:06:47 10° N
SL-16 R/B 2.4 18:59:47 10° NNW 19:05:28 77° WSW 19:11:07 10° SSE
Cosmos 1340 2.9 19:04:33 10° N 19:08:12 44° E 19:11:49 10° SSE
Cosmos 1709 Rocket 3.9 19:05:04 10° S 19:11:17 77° E 19:17:28 10° N
Cosmos 1850 Rocket 4.5 19:06:25 10° S 19:11:18 40° E 19:16:15 10° NNE
NOSS 8 (H) 4.5 19:15:09 10° SSW 19:18:32 55° ESE 19:21:51 10° NE
Cosmos 1954 Rocket 4.2 19:13:41 10° SSW 19:18:51 77° WNW 19:24:05 10° NNE
Helios 1B rocket 3.8 19:18:13 14° ENE 19:20:02 18° E 19:22:56 10° SE
HJ-1C 3.9 19:17:56 10° SE 19:21:03 36° ENE 19:24:11 10° N
OTV 4 2.8 19:20:17 10° SSE 19:21:11 11° SSE 19:21:31 11° SE
Cosmos 2322 Rocket 3.1 19:16:23 10° NNW 19:21:50 52° WSW 19:27:15 10° S
SJ-6B 2.7 19:18:20 10° SSE 19:22:21 71° ENE 19:26:17 10° N
Okean 1 Rocket 3.1 19:19:27 10° S 19:23:49 57° E 19:28:13 10° NNE
Tiangong 2 1.1 19:21:29 10° WNW 19:24:33 73° SSW 19:26:32 20° SE
FENGYUN 3A 3.8 19:20:53 10° SSE 19:26:06 52° ENE 19:31:21 10° N
Hubble Space Telescope 2.8 19:27:25 10° SSW 19:29:54 15° SSE 19:31:23 13° SE
Meteor 1-19 Rocket 4.2 19:24:33 10° N 19:30:13 65° E 19:35:56 10° SSE
Gbstr 26 Del rocket 3.4 19:30:07 10° WSW 19:33:53 48° NW 19:36:52 14° NE
Cosmos 2322 3.7 19:32:32 10° NNW 19:38:14 67° ENE 19:43:53 10° SSE
Cosmos 1238 Rocket 2.1 19:36:18 10° N 19:39:15 78° W 19:42:16 10° S
Atlas Centaur 2 4.4 19:40:29 10° SSE 19:42:05 11° SSE 19:43:34 10° SE
CZ-2D R/B 3.8 19:43:32 35° ENE 19:43:40 35° ENE 19:47:10 10° N
GPS 2-04 Rocket1 3.0 19:40:40 10° WSW 19:44:55 63° SSE 19:46:29 36° E
GEOS 3 Rocket 3.8 19:41:31 10° NNE 19:46:46 76° NW 19:52:03 10° SW
Cosmos 1025 Rocket 3.4 19:42:49 10° N 19:46:59 41° E 19:48:42 28° SE
Meteor 1-13 Rocket 4.4 19:41:39 10° NNW 19:47:13 77° W 19:52:52 10° S
H-2A R/B 2.6 19:46:26 19° SSE 19:48:53 58° ENE 19:52:34 10° N
Cosmos 1536 2.8 19:45:30 10° S 19:49:29 85° W 19:53:29 10° N
SL-19 R/B 4.2 19:45:47 10° SSE 19:51:22 75° ENE 19:57:18 10° NNW
Okean 1-7 Rocket 3.5 19:48:44 10° N 19:53:15 70° E 19:57:41 10° SSE
COSMOS 2428 3.0 19:48:07 10° N 19:53:33 45° ENE 19:55:38 32° ESE
Cosmos 2237 4.2 19:48:12 10° NNW 19:53:52 59° ENE 19:57:28 22° SE
Meteor 1-23 Rocket 4.2 19:48:14 10° N 19:53:58 60° E 19:59:37 10° SSE
Meteor 2-4 Rocket 3.5 19:50:46 10° N 19:56:18 78° E 20:01:40 10° SSE
SL-08 ROCKET BODY 4.4 19:50:16 10° S 19:56:25 84° E 20:02:39 10° N
Cosmos 2237 Rocket 4.0 19:53:49 10° NNE 19:55:53 15° NE 19:55:53 15° NE
Cosmos 1741 Rocket 4.3 19:57:10 10° SSW 20:02:22 67° WNW 20:07:35 10° NNE
Cosmos 2219 3.5 20:05:03 10° SSW 20:10:46 70° WNW 20:16:31 10° NNE
Cosmos 2360 Rocket 2.9 20:07:10 10° NNW 20:12:39 52° WSW 20:18:07 10° S
Cosmos 2219 Rocket 2.9 20:09:22 10° N 20:13:36 34° NE 20:13:36 34° NE
Cosmos 2227 Rocket 3.9 20:11:58 10° S 20:13:25 17° SSE 20:13:25 17° SSE
Cosmos 1570 Rocket 4.1 20:16:03 10° NNW 20:21:16 74° WSW 20:24:14 26° S
BREEZE-M DEB (TANK) 4.3 20:20:59 10° W 20:23:46 25° NW 20:23:46 25° NW
Resurs 01 Rocket 2.7 20:20:23 10° S 20:24:35 43° W 20:28:48 10° NNW
Abrixas rocket 4.3 20:27:34 10° W 20:29:39 27° WNW 20:29:39 27° WNW
DELTA 2 R/B (1) 3.8 20:25:20 10° WNW 20:30:52 61° SSW 20:31:31 56° S
Cosmos 1610 Rocket 4.4 20:24:56 10° S 20:31:11 85° W 20:37:24 10° N
ATLAS CENTAUR R/B 3.1 20:27:35 10° SW 20:30:47 33° WSW 20:30:47 33° WSW
ALOS 4.3 20:29:39 10° SSW 20:33:37 27° W 20:37:36 10° NW
BREEZE-M DEB (TANK) 4.3 20:30:05 10° NW 20:34:08 57° NE 20:35:01 53° ENE
Helios 1A 4.1 20:40:56 39° NW 20:40:56 39° NW 20:43:49 10° NNW
Cosmos 2333 Rocket 3.2 20:42:47 10° NNW 20:46:14 36° N 20:46:14 36° N
USA 229 DEB 3.6 20:47:09 10° NNW 20:54:21 87° ENE 20:54:32 85° ESE
USA 229 3.6 20:47:15 10° NNW 20:54:27 86° ENE 20:54:36 85° E
Helios 1B rocket 4.3 20:54:32 27° NW 20:55:20 29° WNW 20:58:55 10° SW
Cosmos 2237 Rocket 4.4 21:36:13 10° NNW 21:37:45 19° NNW 21:37:45 19° NNW
